Flag for Poland Weather past 2 weeks in Lidzbark Warmiński, Poland

Now
85 °F

Scattered clouds.


Feels Like: 83 °F
Forecast: 64 / 86 °F
Wind: 7 mph from Southeast

Location: Ketrzyn

Current Time: Jul 25, 2014 at 4:49:27 PM

Latest Report: Jul 25, 2014 at 4:00 PM


Visibility: 19 mi

Pressure: 30.02 "Hg

Humidity: 34%

Dew point: 53 °F

Location of Lidzbark WarmińskiLocation

Historic Weather in Lidzbark Warmiński — Graph

°F

Lidzbark Warmiński temperature yesterday

Maximum temperature yesterday: 80 °F (at 4:00 PM)
Minimum temperature yesterday: 55 °F (at 6:00 AM)
Average temperature yesterday: 71 °F

Past Weeks' High & Low Weather Summary

 TemperatureHumidityPressure
High85 °F (Jul 25, 2:00 PM)100% (Jul 12, 1:00 PM)30.21 "Hg (Jul 12, 1:00 PM)
Low53 °F (Jul 19, 3:00 AM)33% (Jul 24, 3:00 PM)29.74 "Hg (Jul 13, 10:00 AM)
Average68 °F70%30.01 "Hg
* Reported Jul 10 3:00 PM — Jul 25 3:00 PM, Lidzbark Warmiński, Weather by CustomWeather, © 2014

Note: Actual official high and low records may vary slightly from our data, if they occured in-between our weather recording intervals... More about our weather records

Advertising

Lidzbark Warmiński weather history for previous 24 hours

 ConditionsComfort  
Time TempWeatherWind HumidityBarometerVisibility
3:00 PM
Jul 25
84 °FScattered clouds.6 mph38%30.03 "Hg22 mi
2:00 PM85 °FScattered clouds.5 mph37%30.04 "Hg16 mi
1:00 PM84 °FScattered clouds.5 mph38%30.05 "Hg16 mi
12:00 PM83 °FScattered clouds.6 mph39%30.06 "Hg19 mi
11:00 AM81 °FPassing clouds.5 mph43%30.06 "Hg17 mi
10:00 AM80 °FPassing clouds.5 mph46%30.07 "Hg19 mi
9:00 AM76 °FPassing clouds.3 mph53%30.07 "Hg17 mi
8:00 AM72 °FPassing clouds.3 mph61%30.07 "Hg16 mi
7:00 AM66 °FPassing clouds.1 mph82%30.06 "Hg14 mi
6:00 AM59 °FSunny.No wind88%30.07 "Hg12 mi
5:00 AM57 °FPassing clouds.1 mph87%30.07 "Hg9 mi
4:00 AM57 °FPassing clouds.1 mph85%30.06 "Hg10 mi
3:00 AM59 °FPassing clouds.1 mph82%30.06 "Hg14 mi
2:00 AM60 °FClear.2 mph80%30.06 "Hg15 mi
1:00 AM63 °FClear.1 mph75%30.07 "Hg17 mi
12:00 AM66 °FPassing clouds.2 mph65%30.06 "Hg22 mi
11:00 PM
Jul 24
67 °FPassing clouds.1 mph61%30.05 "Hg22 mi
10:00 PM70 °FPassing clouds.2 mph53%30.04 "Hg25 mi
9:00 PM73 °FPassing clouds.2 mph47%30.03 "Hg12 mi
8:00 PM76 °FOvercast.2 mph42%30.02 "Hg22 mi
7:00 PM79 °FPartly sunny.3 mph37%30.02 "Hg19 mi
6:00 PM80 °FPartly sunny.5 mph33%30.01 "Hg19 mi
5:00 PM80 °FPartly sunny.5 mph33%30.02 "Hg17 mi
4:00 PM80 °FPartly sunny.6 mph34%30.03 "Hg22 mi
Weather by CustomWeather, © 2014

See weather overviewHow to use our weather pages